• In Hungary
  • List of Countries
  • For 7 days
  • Water Temperature
  • Satellite Maps
  • Weather Map
  • News
  • Weather Widgets
  • user-avatar
    Login

    Hourly Weather Zdzilowice

    Today, 21 August, Tuesday

    Time Temperature Precipitation Wind Pressure Humidity
    00:00 +21°C° 0.2 mm 3 mps 738 mmHg 74%
    01:00 +21°C° 0.2 mm 3 mps 739 mmHg 78%
    02:00 +20°C° 0 mm 2 mps 739 mmHg 77%
    03:00 +20°C° 0 mm 2 mps 739 mmHg 78%
    04:00 +20°C° 0 mm 2 mps 739 mmHg 79%
    05:00 +19°C° 0 mm 3 mps 739 mmHg 80%
    06:00 +20°C° 0 mm 3 mps 740 mmHg 78%
    07:00 +20°C° 0 mm 3 mps 740 mmHg 77%
    08:00 +21°C° 0 mm 4 mps 741 mmHg 74%
    09:00 +22°C° 0 mm 4 mps 741 mmHg 69%
    10:00 +23°C° 0 mm 4 mps 741 mmHg 64%
    11:00 +25°C° 0 mm 4 mps 741 mmHg 58%
    12:00 +25°C° 0 mm 4 mps 741 mmHg 56%
    13:00 +26°C° 0 mm 4 mps 741 mmHg 55%
    14:00 +26°C° 0 mm 4 mps 741 mmHg 53%
    15:00 +26°C° 0 mm 4 mps 741 mmHg 53%
    16:00 +26°C° 0 mm 4 mps 741 mmHg 54%
    17:00 +26°C° 0 mm 4 mps 741 mmHg 54%
    18:00 +24°C° 0 mm 3 mps 741 mmHg 59%
    19:00 +21°C° 0 mm 3 mps 741 mmHg 63%
    20:00 +20°C° 0 mm 2 mps 741 mmHg 68%
    21:00 +19°C° 0 mm 2 mps 742 mmHg 69%
    22:00 +18°C° 0 mm 2 mps 742 mmHg 70%
    23:00 +17°C° 0 mm 2 mps 742 mmHg 70%

    Tomorrow, 22 August, Wednesday

    Time Temperature Precipitation Wind Pressure Humidity
    00:00 +17°C° 0 mm 2 mps 742 mmHg 71%
    01:00 +16°C° 0 mm 2 mps 743 mmHg 73%
    02:00 +15°C° 0 mm 2 mps 743 mmHg 74%
    03:00 +15°C° 0 mm 2 mps 743 mmHg 76%
    04:00 +14°C° 0 mm 2 mps 743 mmHg 78%
    05:00 +14°C° 0 mm 2 mps 743 mmHg 80%
    06:00 +15°C° 0 mm 2 mps 743 mmHg 77%
    07:00 +16°C° 0 mm 2 mps 743 mmHg 74%
    08:00 +17°C° 0 mm 2 mps 744 mmHg 71%
    09:00 +19°C° 0 mm 2 mps 744 mmHg 65%
    10:00 +21°C° 0 mm 2 mps 744 mmHg 59%
    11:00 +23°C° 0 mm 2 mps 744 mmHg 53%
    12:00 +24°C° 0 mm 2 mps 744 mmHg 51%
    13:00 +24°C° 0 mm 2 mps 744 mmHg 48%
    14:00 +25°C° 0 mm 2 mps 743 mmHg 46%
    15:00 +25°C° 0 mm 2 mps 743 mmHg 47%
    16:00 +25°C° 0 mm 2 mps 743 mmHg 48%
    17:00 +25°C° 0 mm 2 mps 743 mmHg 49%
    18:00 +23°C° 0 mm 2 mps 743 mmHg 55%
    19:00 +20°C° 0 mm 2 mps 743 mmHg 62%
    20:00 +19°C° 0 mm 2 mps 743 mmHg 68%
    21:00 +18°C° 0 mm 2 mps 743 mmHg 71%
    22:00 +17°C° 0 mm 2 mps 743 mmHg 73%
    23:00 +17°C° 0 mm 2 mps 743 mmHg 76%

    Day after tomorrow, 23 August, Thursday

    Time Temperature Precipitation Wind Pressure Humidity
    00:00 +16°C° 0 mm 2 mps 743 mmHg 77%
    01:00 +16°C° 0 mm 2 mps 743 mmHg 79%
    02:00 +15°C° 0 mm 2 mps 742 mmHg 80%
    03:00 +15°C° 0 mm 2 mps 742 mmHg 81%
    04:00 +15°C° 0 mm 2 mps 742 mmHg 82%
    05:00 +15°C° 0 mm 2 mps 742 mmHg 83%
    06:00 +16°C° 0 mm 3 mps 742 mmHg 80%
    07:00 +17°C° 0 mm 3 mps 742 mmHg 76%
    08:00 +19°C° 0 mm 3 mps 741 mmHg 73%
    09:00 +20°C° 0 mm 3 mps 741 mmHg 68%
    10:00 +22°C° 0 mm 3 mps 741 mmHg 64%
    11:00 +25°C° 0 mm 4 mps 741 mmHg 59%
    12:00 +25°C° 0 mm 3 mps 741 mmHg 57%
    13:00 +26°C° 0 mm 3 mps 741 mmHg 56%
    14:00 +27°C° 0 mm 3 mps 740 mmHg 54%
    15:00 +27°C° 0 mm 3 mps 740 mmHg 54%
    16:00 +27°C° 0 mm 2 mps 740 mmHg 55%
    17:00 +27°C° 0 mm 2 mps 739 mmHg 55%
    18:00 +25°C° 0 mm 2 mps 739 mmHg 62%
    19:00 +23°C° 0 mm 2 mps 739 mmHg 69%
    20:00 +21°C° 0 mm 2 mps 739 mmHg 76%
    21:00 +20°C° 0 mm 2 mps 739 mmHg 78%
    22:00 +20°C° 0 mm 2 mps 739 mmHg 81%
    23:00 +19°C° 0 mm 2 mps 739 mmHg 83%

    24 August, Friday

    Time Temperature Precipitation Wind Pressure Humidity
    00:00 +19°C° 0 mm 2 mps 738 mmHg 84%
    01:00 +18°C° 0 mm 2 mps 738 mmHg 85%
    02:00 +18°C° 0 mm 2 mps 738 mmHg 87%
    03:00 +18°C° 0 mm 2 mps 738 mmHg 87%
    04:00 +18°C° 0 mm 2 mps 737 mmHg 88%
    05:00 +18°C° 0 mm 2 mps 737 mmHg 89%
    06:00 +19°C° 0 mm 2 mps 737 mmHg 84%
    07:00 +21°C° 0 mm 2 mps 737 mmHg 80%
    08:00 +22°C° 0 mm 3 mps 737 mmHg 75%
    09:00 +25°C° 0 mm 3 mps 737 mmHg 68%
    10:00 +27°C° 0 mm 3 mps 737 mmHg 61%
    11:00 +29°C° 0 mm 3 mps 736 mmHg 54%
    12:00 +30°C° 0 mm 3 mps 736 mmHg 50%
    13:00 +31°C° 0 mm 3 mps 736 mmHg 47%
    14:00 +31°C° 0 mm 3 mps 736 mmHg 44%
    15:00 +31°C° 0 mm 3 mps 735 mmHg 45%
    16:00 +31°C° 0 mm 3 mps 735 mmHg 47%
    17:00 +31°C° 0 mm 3 mps 735 mmHg 49%
    18:00 +29°C° 0 mm 3 mps 734 mmHg 55%
    19:00 +27°C° 0 mm 3 mps 734 mmHg 61%
    20:00 +26°C° 0 mm 4 mps 734 mmHg 68%
    21:00 +25°C° 0.2 mm 4 mps 734 mmHg 71%
    22:00 +24°C° 0.2 mm 3 mps 734 mmHg 74%
    23:00 +22°C° 0.2 mm 3 mps 734 mmHg 78%

    25 August, Saturday

    Time Temperature Precipitation Wind Pressure Humidity
    00:00 +21°C° 0.4 mm 3 mps 733 mmHg 80%
    01:00 +21°C° 0.4 mm 3 mps 733 mmHg 82%
    02:00 +20°C° 0.4 mm 2 mps 733 mmHg 84%
    03:00 +20°C° 0.2 mm 2 mps 733 mmHg 84%
    04:00 +19°C° 0.2 mm 2 mps 733 mmHg 85%
    05:00 +19°C° 0.2 mm 2 mps 733 mmHg 86%
    06:00 +20°C° 0.3 mm 2 mps 733 mmHg 85%
    07:00 +20°C° 0.3 mm 3 mps 733 mmHg 84%
    08:00 +21°C° 0.3 mm 3 mps 734 mmHg 83%
    09:00 +22°C° 0.2 mm 3 mps 734 mmHg 80%
    10:00 +23°C° 0.2 mm 2 mps 734 mmHg 77%
    11:00 +24°C° 0.2 mm 2 mps 734 mmHg 74%
    12:00 +25°C° 0.2 mm 2 mps 734 mmHg 69%
    13:00 +26°C° 0.2 mm 2 mps 734 mmHg 65%
    14:00 +27°C° 0.2 mm 2 mps 734 mmHg 60%
    15:00 +25°C° 2.1 mm 2 mps 734 mmHg 67%
    16:00 +24°C° 2.1 mm 3 mps 734 mmHg 75%
    17:00 +22°C° 2.1 mm 3 mps 734 mmHg 82%
    18:00 +21°C° 0.5 mm 3 mps 734 mmHg 86%
    19:00 +20°C° 0.5 mm 3 mps 734 mmHg 89%
    20:00 +19°C° 0.5 mm 3 mps 735 mmHg 92%
    21:00 +19°C° 0.2 mm 3 mps 734 mmHg 93%
    22:00 +19°C° 0.2 mm 3 mps 734 mmHg 94%
    23:00 +18°C° 0.2 mm 3 mps 734 mmHg 94%

    26 August, Sunday

    Time Temperature Precipitation Wind Pressure Humidity
    00:00 +18°C° 0.1 mm 3 mps 734 mmHg 95%
    01:00 +18°C° 0.1 mm 3 mps 733 mmHg 95%
    02:00 +18°C° 0.1 mm 3 mps 733 mmHg 96%
    03:00 +18°C° 0.4 mm 3 mps 733 mmHg 95%
    04:00 +18°C° 0.4 mm 3 mps 732 mmHg 95%
    05:00 +18°C° 0.4 mm 3 mps 732 mmHg 95%
    06:00 +18°C° 0.5 mm 2 mps 732 mmHg 91%
    07:00 +19°C° 0.5 mm 2 mps 732 mmHg 88%
    08:00 +20°C° 0.5 mm 2 mps 732 mmHg 84%
    09:00 +21°C° 0.1 mm 2 mps 732 mmHg 79%
    10:00 +24°C° 0.1 mm 2 mps 732 mmHg 73%
    11:00 +25°C° 0.1 mm 2 mps 732 mmHg 67%
    12:00 +25°C° 1.5 mm 2 mps 733 mmHg 69%
    13:00 +25°C° 1.5 mm 3 mps 733 mmHg 72%
    14:00 +25°C° 1.5 mm 4 mps 733 mmHg 74%
    15:00 +22°C° 1.2 mm 4 mps 733 mmHg 80%
    16:00 +21°C° 1.2 mm 4 mps 733 mmHg 85%
    17:00 +19°C° 1.2 mm 4 mps 734 mmHg 90%
    18:00 +17°C° 0.2 mm 5 mps 734 mmHg 90%
    19:00 +15°C° 0.2 mm 5 mps 735 mmHg 91%
    20:00 +14°C° 0.2 mm 5 mps 735 mmHg 92%
    21:00 +13°C° 0.1 mm 5 mps 736 mmHg 91%
    22:00 +13°C° 0.1 mm 5 mps 736 mmHg 91%
    23:00 +12°C° 0.1 mm 5 mps 737 mmHg 91%
    Show more